Time,TemperatureF,DewpointF,PressureIn,WindDirection,WindDirectionDegrees,WindSpeedMPH,WindSpeedGustMPH,Humidity,HourlyPrecipIn,Conditions,Clouds,dailyrainin,SoftwareType,DateUTC
2013-02-11 00:02:00,56.6,54.0,29.97,SSW,196,5.0,-999.0,92,-99.99,,,0.01,weatherlink.com 1.10,2013-02-11 05:02:00,
2013-02-11 00:17:00,56.7,55.0,29.96,South,184,3.0,-999.0,92,-99.99,,,0.01,weatherlink.com 1.10,2013-02-11 05:17:00,
2013-02-11 00:32:00,56.8,55.0,29.96,South,179,10.0,-999.0,92,-99.99,,,0.01,weatherlink.com 1.10,2013-02-11 05:32:00,
2013-02-11 00:47:00,56.8,55.0,29.98,SSW,211,3.0,-999.0,92,-99.99,,,0.01,weatherlink.com 1.10,2013-02-11 05:47:00,
2013-02-11 01:02:00,56.8,55.0,29.99,SSW,205,2.0,-999.0,92,-99.99,,,0.01,weatherlink.com 1.10,2013-02-11 06:02:00,
2013-02-11 01:17:00,56.8,55.0,29.98,South,173,9.0,-999.0,92,-99.99,,,0.01,weatherlink.com 1.10,2013-02-11 06:17:00,
2013-02-11 01:32:00,56.7,55.0,29.98,South,185,4.0,-999.0,92,-99.99,,,0.01,weatherlink.com 1.10,2013-02-11 06:32:00,
2013-02-11 01:47:00,56.5,54.0,29.98,SSW,193,4.0,-999.0,92,-99.99,,,0.01,weatherlink.com 1.10,2013-02-11 06:47:00,
2013-02-11 02:02:00,56.2,54.0,29.98,SSW,204,7.0,-999.0,92,-99.99,,,0.01,weatherlink.com 1.10,2013-02-11 07:02:00,
2013-02-11 02:17:00,56.1,54.0,29.99,South,172,4.0,-999.0,91,-99.99,,,0.01,weatherlink.com 1.10,2013-02-11 07:17:00,
2013-02-11 02:32:00,55.9,53.0,30.01,SSW,196,3.0,-999.0,91,-99.99,,,0.01,weatherlink.com 1.10,2013-02-11 07:32:00,
2013-02-11 02:47:00,55.9,53.0,30.02,South,173,6.0,-999.0,91,-99.99,,,0.01,weatherlink.com 1.10,2013-02-11 07:47:00,
2013-02-11 03:02:00,56.0,54.0,30.03,SSW,198,3.0,-999.0,91,-99.99,,,0.01,weatherlink.com 1.10,2013-02-11 08:02:00,
2013-02-11 03:17:00,56.2,53.0,30.03,SSW,196,0.0,-999.0,90,-99.99,,,0.01,weatherlink.com 1.10,2013-02-11 08:17:00,
2013-02-11 03:32:00,56.2,53.0,30.02,South,184,3.0,-999.0,90,-99.99,,,0.01,weatherlink.com 1.10,2013-02-11 08:32:00,
2013-02-11 03:47:00,55.9,53.0,30.03,South,191,3.0,-999.0,91,-99.99,,,0.01,weatherlink.com 1.10,2013-02-11 08:47:00,
2013-02-11 04:02:00,55.7,53.0,30.00,South,175,2.0,-999.0,90,-99.99,,,0.02,weatherlink.com 1.10,2013-02-11 09:02:00,
2013-02-11 04:17:00,55.7,53.0,30.00,South,190,2.0,-999.0,90,-99.99,,,0.02,weatherlink.com 1.10,2013-02-11 09:17:00,
2013-02-11 04:32:00,55.8,53.0,30.00,South,190,2.0,-999.0,90,-99.99,,,0.02,weatherlink.com 1.10,2013-02-11 09:32:00,
2013-02-11 04:47:00,55.9,53.0,30.00,SSW,210,4.0,-999.0,89,-99.99,,,0.02,weatherlink.com 1.10,2013-02-11 09:47:00,
2013-02-11 05:02:00,56.6,54.0,30.01,SW,227,3.0,-999.0,89,-99.99,,,0.02,weatherlink.com 1.10,2013-02-11 10:02:00,
2013-02-11 05:17:00,56.7,54.0,30.00,SSW,210,3.0,-999.0,89,-99.99,,,0.02,weatherlink.com 1.10,2013-02-11 10:17:00,
2013-02-11 05:32:00,56.8,54.0,30.01,WSW,256,0.0,-999.0,89,-99.99,,,0.02,weatherlink.com 1.10,2013-02-11 10:32:00,
2013-02-11 05:47:00,56.9,54.0,30.03,WSW,244,6.0,-999.0,89,-99.99,,,0.02,weatherlink.com 1.10,2013-02-11 10:47:00,
2013-02-11 06:02:00,56.9,54.0,30.03,West,259,0.0,-999.0,89,-99.99,,,0.02,weatherlink.com 1.10,2013-02-11 11:02:00,
2013-02-11 06:17:00,56.9,54.0,30.02,SW,224,6.0,-999.0,89,-99.99,,,0.02,weatherlink.com 1.10,2013-02-11 11:17:00,
2013-02-11 06:32:00,56.5,54.0,30.05,WNW,296,1.0,-999.0,90,-99.99,,,0.02,weatherlink.com 1.10,2013-02-11 11:32:00,
2013-02-11 06:47:00,56.6,54.0,30.05,WSW,249,0.0,-999.0,90,-99.99,,,0.02,weatherlink.com 1.10,2013-02-11 11:47:00,
2013-02-11 07:02:00,56.7,54.0,30.05,West,261,0.0,-999.0,91,-99.99,,,0.02,weatherlink.com 1.10,2013-02-11 12:02:00,
2013-02-11 07:18:00,56.5,54.0,30.06,NW,318,0.0,-999.0,91,-99.99,,,0.02,weatherlink.com 1.10,2013-02-11 12:18:00,
2013-02-11 07:48:00,56.3,54.0,30.03,NW,311,0.0,-999.0,90,-99.99,,,0.02,weatherlink.com 1.10,2013-02-11 12:48:00,
2013-02-11 08:02:00,56.2,53.0,30.05,NW,311,2.0,-999.0,90,-99.99,,,0.02,weatherlink.com 1.10,2013-02-11 13:02:00,
2013-02-11 08:18:00,56.0,53.0,30.08,NW,313,4.0,-999.0,90,-99.99,,,0.02,weatherlink.com 1.10,2013-02-11 13:18:00,
2013-02-11 08:32:00,55.9,54.0,30.08,NW,319,8.0,-999.0,92,-99.99,,,0.02,weatherlink.com 1.10,2013-02-11 13:32:00,
2013-02-11 08:47:00,55.9,54.0,30.09,NW,325,7.0,-999.0,92,-99.99,,,0.03,weatherlink.com 1.10,2013-02-11 13:47:00,
2013-02-11 09:02:00,55.9,53.0,30.09,NNW,331,5.0,-999.0,91,-99.99,,,0.03,weatherlink.com 1.10,2013-02-11 14:02:00,
2013-02-11 09:17:00,55.5,53.0,30.10,NNW,348,5.0,-999.0,90,-99.99,,,0.03,weatherlink.com 1.10,2013-02-11 14:17:00,
2013-02-11 09:33:00,55.3,52.0,30.13,NNW,344,7.0,-999.0,89,-99.99,,,0.03,weatherlink.com 1.10,2013-02-11 14:33:00,
2013-02-11 09:48:00,55.0,52.0,30.12,NNW,338,4.0,-999.0,88,-99.99,,,0.03,weatherlink.com 1.10,2013-02-11 14:48:00,
2013-02-11 10:03:00,54.8,52.0,30.12,North,355,3.0,-999.0,89,-99.99,,,0.03,weatherlink.com 1.10,2013-02-11 15:03:00,
2013-02-11 10:18:00,54.7,52.0,30.11,NNW,336,5.0,-999.0,90,-99.99,,,0.03,weatherlink.com 1.10,2013-02-11 15:18:00,
2013-02-11 10:33:00,54.8,52.0,30.11,NNW,331,4.0,-999.0,90,-99.99,,,0.03,weatherlink.com 1.10,2013-02-11 15:33:00,
2013-02-11 10:48:00,54.7,52.0,30.11,NNW,332,2.0,-999.0,89,-99.99,,,0.03,weatherlink.com 1.10,2013-02-11 15:48:00,
2013-02-11 11:03:00,54.7,52.0,30.11,NW,318,1.0,-999.0,89,-99.99,,,0.03,weatherlink.com 1.10,2013-02-11 16:03:00,
2013-02-11 11:18:00,54.9,52.0,30.11,NW,311,0.0,-999.0,88,-99.99,,,0.03,weatherlink.com 1.10,2013-02-11 16:18:00,
2013-02-11 11:33:00,54.8,51.0,30.16,WNW,290,4.0,-999.0,87,-99.99,,,0.03,weatherlink.com 1.10,2013-02-11 16:33:00,
2013-02-11 11:48:00,54.7,51.0,30.14,WNW,298,0.0,-999.0,88,-99.99,,,0.03,weatherlink.com 1.10,2013-02-11 16:48:00,
2013-02-11 12:03:00,54.7,51.0,30.14,West,278,3.0,-999.0,87,-99.99,,,0.03,weatherlink.com 1.10,2013-02-11 17:03:00,
2013-02-11 12:18:00,54.6,50.0,30.15,WNW,292,2.0,-999.0,83,-99.99,,,0.03,weatherlink.com 1.10,2013-02-11 17:18:00,
2013-02-11 12:33:00,54.7,49.0,30.14,WNW,300,3.0,-999.0,80,-99.99,,,0.03,weatherlink.com 1.10,2013-02-11 17:33:00,
2013-02-11 12:48:00,54.7,49.0,30.14,WNW,300,3.0,-999.0,80,-99.99,,,0.03,weatherlink.com 1.10,2013-02-11 17:48:00,
2013-02-11 13:03:00,54.5,47.0,30.12,NW,323,6.0,-999.0,77,-99.99,,,0.03,weatherlink.com 1.10,2013-02-11 18:03:00,
2013-02-11 13:18:00,54.5,46.0,30.12,WNW,298,3.0,-999.0,74,-99.99,,,0.03,weatherlink.com 1.10,2013-02-11 18:18:00,
2013-02-11 13:33:00,54.3,44.0,30.11,NW,315,2.0,-999.0,68,-99.99,,,0.03,weatherlink.com 1.10,2013-02-11 18:33:00,
2013-02-11 13:48:00,54.1,44.0,30.11,NNW,331,0.0,-999.0,69,-99.99,,,0.04,weatherlink.com 1.10,2013-02-11 18:48:00,
2013-02-11 14:18:00,53.7,43.0,30.11,NW,304,4.0,-999.0,67,-99.99,,,0.04,weatherlink.com 1.10,2013-02-11 19:18:00,
2013-02-11 14:33:00,53.4,43.0,30.11,NNW,328,6.0,-999.0,69,-99.99,,,0.04,weatherlink.com 1.10,2013-02-11 19:33:00,
2013-02-11 14:48:00,53.1,44.0,30.12,NNW,341,7.0,-999.0,70,-99.99,,,0.04,weatherlink.com 1.10,2013-02-11 19:48:00,
2013-02-11 15:03:00,53.0,43.0,30.12,NW,319,4.0,-999.0,69,-99.99,,,0.04,weatherlink.com 1.10,2013-02-11 20:03:00,
2013-02-11 15:18:00,52.8,42.0,30.12,NNW,331,2.0,-999.0,66,-99.99,,,0.04,weatherlink.com 1.10,2013-02-11 20:18:00,
2013-02-11 15:33:00,52.6,41.0,30.09,North,360,0.0,-999.0,66,-99.99,,,0.04,weatherlink.com 1.10,2013-02-11 20:33:00,
2013-02-11 15:48:00,52.6,42.0,30.11,NNW,344,4.0,-999.0,67,-99.99,,,0.04,weatherlink.com 1.10,2013-02-11 20:48:00,
2013-02-11 16:03:00,52.5,41.0,30.10,NNW,347,4.0,-999.0,66,-99.99,,,0.04,weatherlink.com 1.10,2013-02-11 21:03:00,
2013-02-11 16:18:00,52.4,41.0,30.09,North,355,3.0,-999.0,66,-99.99,,,0.04,weatherlink.com 1.10,2013-02-11 21:18:00,
2013-02-11 16:33:00,52.3,41.0,30.09,North,5,4.0,-999.0,65,-99.99,,,0.04,weatherlink.com 1.10,2013-02-11 21:33:00,
2013-02-11 16:48:00,52.3,42.0,30.09,North,355,3.0,-999.0,67,-99.99,,,0.04,weatherlink.com 1.10,2013-02-11 21:48:00,
2013-02-11 17:03:00,52.2,40.0,30.10,NNW,348,1.0,-999.0,64,-99.99,,,0.04,weatherlink.com 1.10,2013-02-11 22:03:00,
2013-02-11 17:18:00,52.1,38.0,30.10,North,355,2.0,-999.0,60,-99.99,,,0.05,weatherlink.com 1.10,2013-02-11 22:18:00,
2013-02-11 17:33:00,51.9,39.0,30.09,North,355,0.0,-999.0,61,-99.99,,,0.00,weatherlink.com 1.10,2013-02-11 22:33:00,
2013-02-11 17:48:00,51.3,39.0,30.08,North,355,2.0,-999.0,64,-99.99,,,0.00,weatherlink.com 1.10,2013-02-11 22:48:00,
2013-02-11 18:03:00,50.9,39.0,30.08,North,355,2.0,-999.0,64,-99.99,,,0.00,weatherlink.com 1.10,2013-02-11 23:03:00,
2013-02-11 18:18:00,50.5,41.0,30.10,North,355,0.0,-999.0,69,-99.99,,,0.00,weatherlink.com 1.10,2013-02-11 23:18:00,
2013-02-11 18:33:00,49.9,41.0,30.09,North,355,0.0,-999.0,71,-99.99,,,0.00,weatherlink.com 1.10,2013-02-11 23:33:00,
2013-02-11 18:49:00,49.0,40.0,30.10,North,355,0.0,-999.0,72,-99.99,,,0.00,weatherlink.com 1.10,2013-02-11 23:49:00,
2013-02-11 19:04:00,48.7,40.0,30.11,North,355,0.0,-999.0,73,-99.99,,,0.00,weatherlink.com 1.10,2013-02-12 00:04:00,
2013-02-11 19:18:00,48.6,41.0,30.09,North,355,0.0,-999.0,75,-99.99,,,0.00,weatherlink.com 1.10,2013-02-12 00:18:00,
2013-02-11 19:34:00,48.1,42.0,30.09,North,355,0.0,-999.0,80,-99.99,,,0.00,weatherlink.com 1.10,2013-02-12 00:34:00,
2013-02-11 19:48:00,47.3,42.0,30.09,North,355,0.0,-999.0,81,-99.99,,,0.00,weatherlink.com 1.10,2013-02-12 00:48:00,
2013-02-11 20:04:00,47.0,41.0,30.08,North,355,0.0,-999.0,80,-99.99,,,0.00,weatherlink.com 1.10,2013-02-12 01:04:00,
2013-02-11 20:18:00,46.9,42.0,30.09,North,355,0.0,-999.0,83,-99.99,,,0.00,weatherlink.com 1.10,2013-02-12 01:18:00,
2013-02-11 20:33:00,46.8,42.0,30.10,NNW,329,0.0,-999.0,84,-99.99,,,0.00,weatherlink.com 1.10,2013-02-12 01:33:00,
2013-02-11 20:48:00,46.4,43.0,30.10,NNW,329,0.0,-999.0,86,-99.99,,,0.00,weatherlink.com 1.10,2013-02-12 01:48:00,
2013-02-11 21:04:00,46.8,42.0,30.11,NW,304,0.0,-999.0,83,-99.99,,,0.00,weatherlink.com 1.10,2013-02-12 02:04:00,
2013-02-11 21:19:00,46.2,43.0,30.11,NW,304,0.0,-999.0,87,-99.99,,,0.00,weatherlink.com 1.10,2013-02-12 02:19:00,
2013-02-11 21:34:00,45.7,43.0,30.11,NW,304,0.0,-999.0,89,-99.99,,,0.00,weatherlink.com 1.10,2013-02-12 02:34:00,
2013-02-11 21:49:00,46.2,41.0,30.11,WSW,257,0.0,-999.0,83,-99.99,,,0.00,weatherlink.com 1.10,2013-02-12 02:49:00,
2013-02-11 22:04:00,46.3,42.0,30.15,NW,308,0.0,-999.0,86,-99.99,,,0.00,weatherlink.com 1.10,2013-02-12 03:04:00,
2013-02-11 22:19:00,46.5,42.0,30.16,NNW,331,3.0,-999.0,83,-99.99,,,0.00,weatherlink.com 1.10,2013-02-12 03:19:00,
2013-02-11 22:34:00,46.6,41.0,30.12,NNW,330,1.0,-999.0,81,-99.99,,,0.00,weatherlink.com 1.10,2013-02-12 03:34:00,
2013-02-11 22:49:00,46.3,41.0,30.12,NNW,330,0.0,-999.0,81,-99.99,,,0.00,weatherlink.com 1.10,2013-02-12 03:49:00,
2013-02-11 23:04:00,46.0,41.0,30.13,West,265,0.0,-999.0,82,-99.99,,,0.01,weatherlink.com 1.10,2013-02-12 04:04:00,
2013-02-11 23:19:00,45.6,40.0,30.11,West,265,0.0,-999.0,82,-99.99,,,0.01,weatherlink.com 1.10,2013-02-12 04:19:00,
2013-02-11 23:34:00,45.2,41.0,30.11,West,265,0.0,-999.0,85,-99.99,,,0.01,weatherlink.com 1.10,2013-02-12 04:34:00,
2013-02-11 23:49:00,44.5,41.0,30.12,West,265,0.0,-999.0,88,-99.99,,,0.01,weatherlink.com 1.10,2013-02-12 04:49:00,